Location: Aufkirchen
(47.9603°N, 11.3653°E)
Time: 16:40:15
(UTC+01:00)

deb Explorer IX - Visible Passes

Search period start: 26 November 2020 00:00
Search period end: 06 December 2020 00:00
Orbit: 538 x 1104 km, 38.8° (Epoch: 25 November)

Date Brightness Start Highest point End Pass type
(mag) Time Alt. Az. Time Alt. Az. Time Alt. Az.
26 Nov ? 16:56:46 10° S 16:59:20 13° SSE 17:01:47 10° SE visible
26 Nov ? 18:41:09 10° SW 18:45:25 25° S 18:46:08 24° SSE visible
27 Nov ? 18:17:39 10° SW 18:22:08 26° S 18:24:08 20° SE visible
27 Nov ? 20:04:06 10° WSW 20:05:25 16° SW 20:05:25 16° SW visible
28 Nov ? 17:54:09 10° SW 17:58:52 27° S 18:02:08 14° ESE visible
28 Nov ? 19:40:40 10° WSW 19:43:25 23° SW 19:43:25 23° SW visible
29 Nov ? 17:30:37 10° SW 17:35:33 28° S 17:39:53 10° ESE visible
29 Nov ? 19:17:11 10° WSW 19:21:25 28° SSW 19:21:25 28° SSW visible
30 Nov ? 17:07:05 10° SW 17:12:14 29° S 17:16:45 10° ESE visible
30 Nov ? 18:53:42 10° WSW 18:58:28 29° S 18:59:26 27° SSE visible
01 Dec ? 18:30:11 10° WSW 18:35:10 30° S 18:37:30 21° SSE visible
01 Dec ? 20:17:56 10° WSW 20:18:47 12° WSW 20:18:47 12° WSW visible
02 Dec ? 18:06:40 10° WSW 18:11:51 31° S 18:15:36 14° SE visible
02 Dec ? 19:54:24 10° WSW 19:56:54 16° SW 19:56:54 16° SW visible
03 Dec ? 17:43:07 10° WSW 17:48:30 32° S 17:53:12 10° SE visible
03 Dec ? 19:30:51 10° WSW 19:34:27 18° SSW 19:35:04 17° SSW visible
04 Dec ? 17:19:33 10° WSW 17:25:09 33° S 17:30:01 10° SE visible
04 Dec ? 19:07:17 10° WSW 19:11:08 18° SSW 19:13:20 14° S visible
05 Dec ? 16:55:59 10° WSW 17:01:46 34° S 17:06:50 10° SE visible
05 Dec ? 18:43:43 10° WSW 18:47:47 19° SSW 18:51:28 10° SSE visible
